When you browse on this site, cookies collect data to enhance your experience and personalize the content and advertising you see.
Visit our Privacy Policy to learn more. By continuing to use the site, you agree to this use of cookies and data.
EN

Hourly Weather Potsdam

Today, 9 July, Thursday

Time Temperature Precipitation Wind Pressure Humidity
00:00 +14°C° 0 mm 1 mps 758 mmHg 90%
01:00 +14°C° 0 mm 1 mps 758 mmHg 93%
02:00 +14°C° 0.1 mm 1 mps 758 mmHg 93%
03:00 +14°C° 0.1 mm 1 mps 758 mmHg 94%
04:00 +14°C° 0.1 mm 1 mps 758 mmHg 94%
05:00 +14°C° 0.1 mm 1 mps 757 mmHg 92%
06:00 +15°C° 0.1 mm 2 mps 757 mmHg 90%
07:00 +16°C° 0.1 mm 2 mps 757 mmHg 88%
08:00 +16°C° 0.1 mm 2 mps 757 mmHg 86%
09:00 +16°C° 0.1 mm 3 mps 757 mmHg 85%
10:00 +17°C° 0.1 mm 3 mps 756 mmHg 83%
11:00 +17°C° 0.6 mm 3 mps 756 mmHg 85%
12:00 +17°C° 0.6 mm 4 mps 755 mmHg 88%
13:00 +17°C° 0.6 mm 4 mps 755 mmHg 90%
14:00 +17°C° 0.7 mm 5 mps 754 mmHg 87%
15:00 +19°C° 0.7 mm 5 mps 754 mmHg 84%
16:00 +21°C° 0.7 mm 6 mps 754 mmHg 81%
17:00 +20°C° 0.3 mm 5 mps 754 mmHg 83%
18:00 +20°C° 0.3 mm 4 mps 753 mmHg 85%
19:00 +19°C° 0.3 mm 3 mps 753 mmHg 87%
20:00 +18°C° 0 mm 3 mps 754 mmHg 89%
21:00 +18°C° 0 mm 3 mps 754 mmHg 90%
22:00 +17°C° 0 mm 3 mps 754 mmHg 92%
23:00 +17°C° 0 mm 3 mps 754 mmHg 92%

Tomorrow, 10 July, Friday

Time Temperature Precipitation Wind Pressure Humidity
00:00 +17°C° 0 mm 3 mps 754 mmHg 93%
01:00 +17°C° 0 mm 3 mps 754 mmHg 93%
02:00 +17°C° 0 mm 3 mps 753 mmHg 93%
03:00 +17°C° 0 mm 3 mps 753 mmHg 92%
04:00 +17°C° 0 mm 3 mps 753 mmHg 92%
05:00 +17°C° 0.1 mm 3 mps 753 mmHg 91%
06:00 +18°C° 0.1 mm 3 mps 753 mmHg 90%
07:00 +18°C° 0.1 mm 3 mps 753 mmHg 89%
08:00 +19°C° 0.1 mm 3 mps 752 mmHg 85%
09:00 +20°C° 0.1 mm 3 mps 752 mmHg 82%
10:00 +21°C° 0.1 mm 3 mps 752 mmHg 78%
11:00 +22°C° 0.6 mm 4 mps 752 mmHg 76%
12:00 +22°C° 0.6 mm 4 mps 752 mmHg 74%
13:00 +23°C° 0.6 mm 5 mps 752 mmHg 72%
14:00 +22°C° 0.4 mm 5 mps 752 mmHg 73%
15:00 +22°C° 0.4 mm 5 mps 753 mmHg 75%
16:00 +21°C° 0.4 mm 5 mps 753 mmHg 76%
17:00 +20°C° 0 mm 5 mps 753 mmHg 78%
18:00 +19°C° 0 mm 5 mps 754 mmHg 80%
19:00 +17°C° 0 mm 4 mps 754 mmHg 82%
20:00 +15°C° 0 mm 4 mps 755 mmHg 84%
21:00 +14°C° 0 mm 3 mps 756 mmHg 87%
22:00 +13°C° 0 mm 3 mps 757 mmHg 89%
23:00 +12°C° 0 mm 3 mps 758 mmHg 90%

Day after tomorrow, 11 July, Saturday

Time Temperature Precipitation Wind Pressure Humidity
00:00 +12°C° 0 mm 3 mps 758 mmHg 90%
01:00 +11°C° 0 mm 3 mps 759 mmHg 91%
02:00 +10°C° 0 mm 2 mps 759 mmHg 91%
03:00 +10°C° 0 mm 2 mps 759 mmHg 92%
04:00 +9°C° 0 mm 2 mps 760 mmHg 92%
05:00 +10°C° 0 mm 2 mps 760 mmHg 86%
06:00 +12°C° 0 mm 2 mps 761 mmHg 80%
07:00 +12°C° 0 mm 3 mps 761 mmHg 75%
08:00 +14°C° 0 mm 3 mps 761 mmHg 68%
09:00 +16°C° 0 mm 3 mps 762 mmHg 62%
10:00 +18°C° 0 mm 3 mps 762 mmHg 56%
11:00 +19°C° 0 mm 3 mps 762 mmHg 53%
12:00 +19°C° 0 mm 3 mps 762 mmHg 50%
13:00 +20°C° 0 mm 3 mps 762 mmHg 47%
14:00 +20°C° 0.1 mm 3 mps 762 mmHg 48%
15:00 +20°C° 0.1 mm 3 mps 762 mmHg 49%
16:00 +20°C° 0.1 mm 3 mps 762 mmHg 50%
17:00 +19°C° 0.1 mm 3 mps 762 mmHg 56%
18:00 +19°C° 0.1 mm 3 mps 763 mmHg 61%
19:00 +18°C° 0.1 mm 3 mps 763 mmHg 67%
20:00 +16°C° 0 mm 2 mps 763 mmHg 72%
21:00 +15°C° 0 mm 2 mps 764 mmHg 77%
22:00 +13°C° 0 mm 2 mps 764 mmHg 82%
23:00 +13°C° 0 mm 2 mps 764 mmHg 84%

12 July, Sunday

Time Temperature Precipitation Wind Pressure Humidity
00:00 +12°C° 0 mm 2 mps 764 mmHg 86%
01:00 +12°C° 0 mm 2 mps 764 mmHg 89%
02:00 +10°C° 0 mm 2 mps 765 mmHg 89%
03:00 +10°C° 0 mm 2 mps 765 mmHg 90%
04:00 +9°C° 0 mm 2 mps 765 mmHg 90%
05:00 +10°C° 0 mm 2 mps 765 mmHg 84%
06:00 +12°C° 0 mm 2 mps 765 mmHg 78%
07:00 +13°C° 0 mm 3 mps 765 mmHg 72%
08:00 +14°C° 0 mm 3 mps 765 mmHg 65%
09:00 +17°C° 0 mm 3 mps 765 mmHg 58%
10:00 +18°C° 0 mm 3 mps 766 mmHg 50%
11:00 +19°C° 0 mm 4 mps 765 mmHg 48%
12:00 +20°C° 0 mm 4 mps 765 mmHg 47%
13:00 +21°C° 0 mm 4 mps 765 mmHg 45%
14:00 +21°C° 0 mm 4 mps 765 mmHg 46%
15:00 +21°C° 0 mm 4 mps 765 mmHg 47%
16:00 +21°C° 0 mm 4 mps 765 mmHg 48%
17:00 +20°C° 0 mm 3 mps 765 mmHg 53%
18:00 +19°C° 0 mm 3 mps 765 mmHg 58%
19:00 +18°C° 0 mm 2 mps 765 mmHg 63%
20:00 +17°C° 0 mm 2 mps 765 mmHg 67%
21:00 +16°C° 0 mm 2 mps 765 mmHg 71%
22:00 +15°C° 0 mm 2 mps 765 mmHg 76%
23:00 +14°C° 0 mm 2 mps 765 mmHg 79%

13 July, Monday

Time Temperature Precipitation Wind Pressure Humidity
00:00 +14°C° 0 mm 2 mps 765 mmHg 83%
01:00 +13°C° 0 mm 2 mps 765 mmHg 87%
02:00 +13°C° 0 mm 2 mps 765 mmHg 89%
03:00 +12°C° 0 mm 2 mps 765 mmHg 91%
04:00 +12°C° 0 mm 2 mps 764 mmHg 93%
05:00 +13°C° 0 mm 2 mps 764 mmHg 87%
06:00 +14°C° 0 mm 2 mps 764 mmHg 81%
07:00 +14°C° 0 mm 3 mps 764 mmHg 76%
08:00 +17°C° 0 mm 3 mps 764 mmHg 69%
09:00 +18°C° 0 mm 3 mps 764 mmHg 62%
10:00 +20°C° 0 mm 4 mps 764 mmHg 55%
11:00 +21°C° 0 mm 4 mps 764 mmHg 52%
12:00 +22°C° 0 mm 4 mps 763 mmHg 50%
13:00 +23°C° 0 mm 4 mps 763 mmHg 47%
14:00 +23°C° 0 mm 4 mps 763 mmHg 47%
15:00 +23°C° 0 mm 4 mps 762 mmHg 47%
16:00 +23°C° 0 mm 4 mps 762 mmHg 47%
17:00 +22°C° 0 mm 3 mps 762 mmHg 52%
18:00 +21°C° 0 mm 3 mps 762 mmHg 57%
19:00 +21°C° 0 mm 2 mps 762 mmHg 61%
20:00 +19°C° 0 mm 2 mps 762 mmHg 66%
21:00 +19°C° 0 mm 1 mps 762 mmHg 72%
22:00 +16°C° 0 mm 1 mps 762 mmHg 77%
23:00 +15°C° 0 mm 1 mps 762 mmHg 78%

14 July, Tuesday

Time Temperature Precipitation Wind Pressure Humidity
00:00 +15°C° 0 mm 1 mps 762 mmHg 80%
01:00 +14°C° 0 mm 1 mps 762 mmHg 82%
02:00 +14°C° 0 mm 1 mps 761 mmHg 83%
03:00 +12°C° 0 mm 0 mps 761 mmHg 84%
04:00 +12°C° 0 mm 0 mps 761 mmHg 86%
05:00 +14°C° 0 mm 0 mps 761 mmHg 80%
06:00 +15°C° 0 mm 0 mps 761 mmHg 73%
07:00 +17°C° 0 mm 0 mps 761 mmHg 67%
08:00 +21°C° 0 mm 1 mps 761 mmHg 62%
09:00 +22°C° 0 mm 1 mps 761 mmHg 57%
10:00 +24°C° 0 mm 1 mps 760 mmHg 51%
11:00 +25°C° 0 mm 1 mps 760 mmHg 48%
12:00 +25°C° 0 mm 1 mps 760 mmHg 45%
13:00 +26°C° 0 mm 1 mps 760 mmHg 42%
14:00 +26°C° 0 mm 1 mps 759 mmHg 42%
15:00 +26°C° 0 mm 1 mps 759 mmHg 41%
16:00 +26°C° 0 mm 2 mps 759 mmHg 41%
17:00 +25°C° 0 mm 2 mps 759 mmHg 46%
18:00 +24°C° 0 mm 2 mps 758 mmHg 51%
19:00 +23°C° 0 mm 1 mps 758 mmHg 56%
20:00 +21°C° 0 mm 2 mps 759 mmHg 60%
21:00 +19°C° 0 mm 2 mps 759 mmHg 65%
22:00 +18°C° 0 mm 2 mps 759 mmHg 69%
23:00 +17°C° 0 mm 2 mps 759 mmHg 71%
Show more